Weather History for GMFF - December, 2012

Change the Weather History Date:

Monday, December 10, 2012

  Actual Average Record
Temperature  
Mean Temperature 52 °F -  
Max Temperature 63 °F 59 °F 71 °F (2010)
Min Temperature 41 °F 39 °F 32 °F (2013)
Degree Days  
Heating Degree Days 13    
Growing Degree Days 2 (Base 50)    
Moisture  
Dew Point 45 °F    
Average Humidity 78    
Maximum Humidity 100    
Minimum Humidity 44    
Precipitation  
Precipitation 0.00 in 0.11 in - ()
Sea Level Pressure  
Sea Level Pressure 30.17 in    
Wind  
Wind Speed 5 mph ()    
Max Wind Speed 12 mph    
Max Gust Speed -    
Visibility 4.2 miles    
Events Fog    
Averages and records for this station are not official NWS values.
T = Trace of Precipitation, MM = Missing Value Source: Averaged Metar Reports

Daily Weather History Graph

Daily Weather History Graph

Search for Another Location

Airport or City:

Trip Planner

Search our weather history database for the weather conditions in past years. The results will help you decide how hot, cold, wet, or windy it might be!

Date:

Astronomy

Dec. 10, 2012 Rise Set
Actual Time 7:14 AM WET 5:11 PM WET
Civil Twilight 6:46 AM WET 5:38 PM WET
Nautical Twilight 6:15 AM WET 6:09 PM WET
Astronomical Twilight 5:45 AM WET 6:40 PM WET
Moon 3:47 AM WET (12/10) 2:45 PM WET (12/10)
Length of Visible Light 10h 51m
Length of Day
9h 56m
Waning Crescent, 12% of the Moon is Illuminated
Dec 10
Waning Crescent
Dec 13
New
Dec 20
First Quarter
Dec 28
Full
Jan 5
Last Quarter

Hourly Weather History & Observations

Time (WET) Temp. Windchill Dew Point Humidity Pressure Visibility Wind Dir Wind Speed Gust Speed Precip Events Conditions
12:00 AM 45 °F - 42 °F 87% 30.25 in 6 mi SSW 4.6 mph - -   Clear
12:00 AM 44.6 °F 42.2 °F 42.8 °F 93% 30.21 in - SSW 4.6 mph - N/A   Clear
2:00 AM 42.8 °F 40.1 °F 41.0 °F 93% 30.18 in - SSW 4.6 mph - N/A   Clear
5:00 AM 42.8 °F 40.1 °F 39.2 °F 87% 30.15 in - SSW 4.6 mph - N/A   Clear
6:00 AM 44 °F - 40 °F 80% 30.20 in 6 mi SSW 4.6 mph - -   Clear
6:00 AM 44.6 °F 42.2 °F 39.2 °F 81% 30.15 in - SSW 4.6 mph - N/A   Clear
7:00 AM 42.8 °F 40.1 °F 37.4 °F 81% 30.18 in - SSW 4.6 mph - N/A   Clear
8:00 AM 42.8 °F 40.1 °F 37.4 °F 81% 30.18 in - SSW 4.6 mph - N/A   Clear
9:00 AM 53 °F - 43 °F 60% 30.22 in 6 mi SSW 11.5 mph - -   Scattered Clouds
9:00 AM 53.6 °F - 42.8 °F 67% 30.21 in - SSW 11.5 mph - N/A   Clear
10:00 AM 59.0 °F - 39.2 °F 48% 30.21 in - WNW 6.9 mph - N/A   Clear
11:00 AM 57.2 °F - 42.8 °F 59% 30.21 in - West 6.9 mph - N/A   Clear
12:00 PM 63 °F - 46 °F 44% 30.15 in 6 mi WNW 6.9 mph - -   Partly Cloudy
12:00 PM 62.6 °F - 48.2 °F 59% 30.18 in - WNW 9.2 mph - N/A   Clear
1:00 PM 62.6 °F - 48.2 °F 59% 30.15 in - NW 9.2 mph - N/A   Clear
2:00 PM 62.6 °F - 48.2 °F 59% 30.12 in - WNW 6.9 mph - N/A   Clear
3:00 PM 65 °F - 51 °F 50% 30.11 in 6 mi NW 4.6 mph - -   Partly Cloudy
3:00 PM 62.6 °F - 48.2 °F 59% 30.12 in - NNW 4.6 mph - N/A   Clear
4:00 PM 62.6 °F - 50.0 °F 63% 30.12 in - NNW 4.6 mph - N/A   Clear
5:00 PM 57.2 °F - 50.0 °F 77% 30.15 in - NNE 2.3 mph - N/A   Clear
6:00 PM 53 °F - 50 °F 87% 30.15 in 6 mi North 2.3 mph - -   Partly Cloudy
6:00 PM 53.6 °F - 50.0 °F 88% 30.15 in 6.2 mi North 2.3 mph - N/A   Scattered Clouds
7:00 PM 51.8 °F - 48.2 °F 88% 30.15 in 6.2 mi North 6.9 mph - N/A   Scattered Clouds
8:00 PM 50.0 °F - 48.2 °F 94% - 5.0 mi West 2.3 mph - N/A   Scattered Clouds
9:00 PM 47 °F - 46 °F 92% 30.19 in 4 mi SSW 4.6 mph - -   Scattered Clouds
9:00 PM 46.4 °F 44.3 °F 46.4 °F 100% 30.15 in 3.7 mi SSW 4.6 mph - N/A   Scattered Clouds
9:15 PM 46.4 °F 44.3 °F 46.4 °F 100% 30.15 in 1.2 mi SSW 4.6 mph - N/A   Scattered Clouds
9:50 PM 48.2 °F - 48.2 °F 100% - 0.1 mi South 4.6 mph - N/A Fog Fog
10:00 PM 48.2 °F - 48.2 °F 100% 30.15 in 0.1 mi South 4.6 mph - N/A Fog Fog
11:00 PM 48.2 °F - 46.4 °F 93% 30.15 in 0.1 mi South 4.6 mph - N/A Fog Fog